Zurück zum Katalog

STARLINK-32163

AktivKommunikationVLEO
NORAD 60262·PAYLOAD·🇺🇸 United States

Gestartet Jul 27, 2024 von Cape Canaveral Space Force Station

Loading…

Nächste Überflüge (nächste 24 Stunden)

TLE

AktuellSource: CelesTrak SupGP

Epoche: Sep 15, 2026, 03:22 UTC

1 60262C 24131H   26258.14076389 -.00042090  00000+0 -13533-2 0  2589
2 60262  53.1585 250.8544 0001325  89.9877  28.2067 15.31727380    15

Verfolge STARLINK-32163 in Echtzeit mit AllMySat

Download on the App Store